Вернуться в каталог

GOES 17

АктивенПогодаGEO
NORAD 43226·PAYLOAD·🇺🇸 United States

Запущен Mar 1, 2018 с Cape Canaveral Space Force Station

Loading…

TLE

СвежийSource: Space-Track

Эпоха: Sep 14, 2026, 21:55 UTC

1 43226U 18022A   26257.91376737 -.00000190  00000-0  00000-0 0  9996
2 43226   1.1622  84.1992 0000784 125.8098  23.3471  1.00272215 31325

Отслеживайте GOES 17 в реальном времени с AllMySat

Download on the App Store